カタログに戻る

FLYLAB 1

運用中科学SSO
NORAD 68472·PAYLOAD·🇫🇷 France

打ち上げ Mar 30, 2026 から Vandenberg Space Force Base

Loading…

次のパス (今後24時間)

TLE

最新Source: Space-Track

元期: Sep 14, 2026, 07:56 UTC

1 68472U 26067BJ  26257.33090696  .00000691  00000-0  73580-4 0  9999
2 68472  97.7726 214.1446 0005188 102.9111 257.2688 14.92046866 25018

AllMySatでFLYLAB 1をリアルタイム追跡

Download on the App Store